Wind_Speed
21 20 20 20 20 20 19 19 18 18 18 18 18 19 19 20 20 21 21 21 21 21 22 22 22 23 23 24 24 24 24 25 25 25 26 26 26 26
22 22 22 22 21 21 21 21 22 22 21 21 21 22 22 23 23 23 23 24 24 24 25 25 25 26 26 26 27 27 27 27 28 28 28 29 29 30
23 23 23 24 23 23 23 24 24 24 25 24 24 24 25 25 25 26 26 27 27 28 28 28 28 28 29 29 29 30 30 31 31 31 32 32 33 33
24 24 24 26 26 25 26 26 26 26 26 26 26 27 27 27 28 28 29 30 31 31 31 32 32 32 32 33 33 33 33 34 34 34 35 36 36 37
25 25 26 26 26 27 27 27 28 29 28 28 28 29 29 29 30 31 32 32 33 34 34 35 35 35 35 36 36 36 37 37 38 39 39 39 40 40
25 26 26 27 28 27 27 28 29 29 30 30 30 31 31 32 33 33 34 35 35 36 36 37 38 38 38 39 39 39 40 41 41 42 42 42 43 43
26 26 26 27 28 28 29 30 30 32 32 32 32 33 33 34 35 36 37 37 37 39 39 40 41 41 41 42 42 43 43 44 44 45 45 45 46 46
27 27 28 28 29 30 30 31 32 32 32 33 34 34 34 36 37 37 38 39 40 41 42 42 43 44 44 45 45 46 47 48 49 49 49 49 49 49
26 27 27 28 29 30 30 31 33 34 35 35 35 36 38 39 39 39 40 41 42 43 44 44 45 45 46 47 47 48 49 50 51 52 52 53 53 54
26 27 27 28 29 31 32 33 34 35 36 36 37 38 39 40 41 42 43 44 45 46 46 46 47 48 49 50 51 52 52 53 53 54 55 56 57 57
26 27 29 30 30 31 32 33 35 36 36 37 39 40 41 42 43 45 46 47 47 48 49 50 51 51 52 53 54 55 55 56 57 58 58 59 59 60
26 28 30 31 32 32 34 35 36 36 38 39 41 42 43 45 46 47 48 49 50 51 52 53 54 54 55 55 56 58 59 60 60 61 61 61 61 61
27 29 30 31 32 33 34 35 36 38 40 41 42 44 45 46 48 49 50 51 53 54 55 56 56 56 57 57 58 59 60 61 62 62 62 61 60 60
28 28 29 30 32 34 35 36 38 40 41 42 43 45 47 49 50 51 53 54 55 56 57 57 58 58 59 60 60 60 60 60 60 59 57 56 56 56
29 29 31 32 34 37 38 39 40 41 42 44 45 47 49 51 53 53 54 55 56 56 57 57 58 59 59 60 60 59 58 56 56 55 54 52 53 53
31 32 34 36 37 38 39 39 40 42 43 45 47 48 50 50 51 52 53 54 55 55 56 56 57 57 57 56 54 53 53 52 51 51 50 49 49 49
34 34 35 37 38 39 39 40 41 42 44 46 47 48 49 50 51 52 52 52 53 53 53 53 52 51 50 50 49 50 49 48 48 47 47 48 48 47
34 34 35 36 37 38 39 40 42 43 45 47 48 48 49 50 50 50 50 50 50 50 49 48 48 47 46 46 46 46 45 45 45 45 45 44 43 42
34 35 35 36 37 39 40 41 42 43 45 46 46 47 48 49 49 49 48 48 47 47 47 45 44 44 43 43 43 43 43 42 42 41 40 39 38 37
34 35 36 37 38 39 40 41 42 43 44 45 46 47 47 47 47 46 46 45 45 44 43 42 41 40 40 40 40 40 39 39 38 36 35 34 33 32
34 35 36 37 38 39 40 42 43 43 44 45 45 45 45 45 44 43 43 42 41 40 39 38 38 37 37 36 36 35 35 34 33 32 31 31 30 29
35 36 37 38 39 40 41 42 43 43 44 44 44 44 44 43 42 41 40 38 37 36 36 35 34 33 33 33 32 31 30 30 29 29 29 29 28 27
36 37 38 39 39 40 40 41 41 42 42 42 41 41 40 39 38 37 36 35 34 33 32 31 30 29 29 28 28 27 27 27 27 27 26 25 25 24
Wind_Direction
243 245 247 250 252 254 256 258 260 261 262 265 267 268 269 271 274 276 279 280 281 282 284 285 286 287 286 286 286 286 286 286 285 284 284 284 284 284
244 247 249 250 252 254 256 258 260 262 263 265 267 269 271 273 275 277 279 280 281 281 282 283 284 285 285 285 285 285 285 284 284 284 283 283 283 282
248 250 251 251 253 255 256 259 261 263 264 267 269 271 273 274 276 278 279 280 281 281 282 283 284 284 284 284 284 284 284 283 283 283 282 282 282 282
249 252 253 253 254 256 258 261 263 265 266 268 270 271 273 275 278 280 281 281 281 281 282 282 283 283 283 283 283 282 282 282 283 282 282 281 281 281
251 253 255 255 256 259 261 262 264 265 267 269 270 271 273 275 277 279 281 281 282 283 283 284 284 284 285 285 284 282 281 281 282 282 282 282 281 281
254 254 256 258 259 259 262 265 267 267 267 269 271 271 273 275 277 279 280 282 283 283 283 284 284 284 284 284 283 283 282 282 282 282 283 282 281 281
256 255 256 258 259 260 263 265 267 268 269 271 272 273 274 276 278 280 281 282 282 284 284 285 285 284 284 283 283 283 282 282 282 282 282 282 282 281
259 258 260 261 261 262 264 265 268 270 271 272 274 275 276 277 279 281 281 282 283 284 284 285 285 285 285 285 285 284 283 283 283 282 282 282 282 281
261 262 262 262 263 265 266 268 269 270 272 274 276 276 277 278 279 280 282 283 284 284 284 284 285 285 285 285 285 285 285 285 284 283 283 282 282 282
264 263 263 264 264 267 270 271 272 273 274 275 275 277 278 279 280 281 282 283 283 284 285 285 286 286 286 285 286 286 286 286 285 284 283 283 282 282
265 265 266 267 267 269 271 273 274 275 276 277 276 278 278 280 281 282 284 284 284 285 285 286 286 286 286 286 286 287 286 285 285 284 284 283 283 282
269 269 270 270 270 273 275 277 276 277 278 279 279 280 280 281 282 283 284 285 285 285 286 286 287 287 287 287 287 286 286 286 285 285 285 284 283 282
273 273 272 272 273 275 277 277 278 279 281 282 282 282 283 284 284 285 286 286 287 287 288 288 288 288 289 288 288 287 287 287 286 286 287 286 285 283
274 273 274 275 277 278 280 281 282 283 284 285 285 285 285 286 287 287 288 288 289 289 289 289 289 289 289 289 289 288 288 288 288 288 288 287 285 284
279 278 278 280 281 281 282 282 283 284 286 287 287 288 287 287 288 289 289 289 290 290 290 289 289 290 290 290 290 290 290 289 288 288 288 287 285 284
281 282 282 282 284 285 285 285 286 287 288 289 289 289 290 290 291 292 292 292 291 291 291 290 291 291 291 292 292 291 291 291 291 290 289 287 286 285
287 287 287 286 286 286 288 289 289 289 289 291 292 292 292 292 293 294 294 294 294 293 293 293 293 293 292 293 293 293 292 292 292 291 290 289 288 286
287 288 289 289 290 290 290 291 292 292 292 293 294 295 295 296 296 296 296 296 296 295 295 294 294 294 294 294 293 293 293 292 291 291 291 290 289 287
289 290 292 293 294 294 294 294 295 296 296 296 297 297 297 297 298 298 297 297 296 296 296 295 295 294 294 294 293 293 293 293 293 292 291 290 289 287
291 292 293 295 296 296 297 298 299 299 299 299 300 300 300 300 300 299 299 298 298 297 296 296 295 294 294 295 295 295 294 293 293 292 291 290 290 289
294 294 296 297 298 299 300 301 301 301 301 301 301 301 301 302 301 301 301 301 300 299 298 297 296 295 296 297 298 298 297 296 295 294 293 293 292 291
298 299 300 300 301 301 302 302 302 302 302 301 302 302 303 303 302 302 302 301 300 299 299 298 298 298 298 298 299 300 300 299 299 298 296 295 294 292
300 301 302 302 303 303 304 304 304 304 304 304 305 305 305 304 302 302 301 300 301 301 301 301 301 302 302 302 302 302 303 303 302 300 300 298 295 293
Height
5880 5881 5882 5883 5883 5884 5884 5885 5886 5885 5885 5885 5885 5884 5884 5884 5883 5883 5882 5881 5880 5880 5878 5877 5876 5875 5874 5873 5871 5870 5869 5868 5867 5866 5865 5864 5863 5862
5875 5876 5877 5878 5878 5879 5880 5880 5880 5881 5880 5880 5880 5879 5879 5878 5878 5877 5877 5876 5875 5874 5873 5871 5870 5869 5867 5866 5865 5864 5862 5861 5860 5859 5858 5857 5856 5854
5870 5871 5872 5873 5873 5874 5874 5875 5875 5875 5875 5875 5874 5874 5873 5872 5871 5870 5870 5869 5868 5867 5866 5865 5863 5862 5860 5859 5858 5856 5855 5854 5852 5851 5850 5849 5847 5846
5865 5866 5867 5867 5868 5868 5869 5869 5869 5869 5869 5868 5868 5867 5866 5865 5864 5863 5862 5861 5860 5859 5858 5857 5855 5854 5852 5851 5849 5848 5847 5845 5844 5842 5841 5840 5838 5837
5859 5860 5860 5861 5861 5862 5862 5862 5862 5862 5862 5861 5861 5860 5859 5858 5857 5856 5855 5853 5852 5851 5850 5848 5847 5845 5843 5842 5840 5839 5837 5836 5834 5832 5831 5829 5828 5826
5852 5853 5854 5854 5855 5855 5856 5856 5855 5855 5855 5854 5853 5852 5852 5851 5849 5848 5847 5845 5844 5842 5840 5839 5837 5835 5834 5832 5830 5828 5826 5824 5823 5821 5819 5818 5816 5815
5846 5846 5847 5848 5848 5849 5849 5848 5848 5848 5847 5846 5845 5845 5844 5842 5841 5839 5838 5836 5834 5832 5830 5828 5826 5825 5822 5820 5819 5816 5814 5812 5811 5809 5807 5805 5803 5802
5839 5840 5840 5841 5841 5841 5841 5841 5841 5840 5840 5839 5838 5836 5835 5834 5832 5830 5828 5827 5825 5823 5820 5818 5815 5813 5811 5808 5807 5804 5802 5799 5797 5795 5793 5791 5789 5787
5833 5833 5834 5834 5834 5834 5834 5833 5833 5832 5831 5830 5829 5828 5826 5824 5822 5821 5819 5816 5814 5812 5809 5807 5804 5802 5799 5796 5794 5791 5788 5786 5783 5781 5778 5776 5774 5772
5826 5826 5826 5827 5826 5826 5826 5825 5824 5823 5822 5821 5820 5818 5816 5814 5812 5810 5808 5806 5803 5800 5797 5795 5792 5789 5786 5783 5780 5777 5774 5771 5767 5765 5762 5760 5757 5755
5819 5819 5819 5819 5818 5818 5817 5816 5815 5814 5813 5811 5809 5807 5805 5803 5801 5799 5796 5794 5791 5788 5785 5782 5778 5775 5772 5768 5765 5762 5758 5755 5751 5748 5745 5742 5739 5736
5813 5812 5811 5810 5810 5809 5808 5807 5806 5804 5803 5801 5798 5796 5794 5792 5789 5786 5783 5781 5777 5775 5771 5768 5764 5760 5757 5754 5749 5744 5740 5737 5733 5730 5726 5723 5719 5716
5806 5805 5804 5802 5802 5801 5799 5798 5796 5795 5792 5790 5787 5785 5782 5779 5777 5774 5770 5767 5763 5760 5756 5752 5748 5744 5740 5737 5732 5727 5722 5718 5714 5710 5706 5703 5699 5696
5798 5797 5796 5795 5793 5792 5790 5788 5786 5784 5781 5778 5775 5772 5770 5767 5763 5760 5756 5752 5748 5744 5739 5735 5731 5727 5722 5718 5714 5709 5704 5699 5695 5690 5687 5683 5680 5677
5791 5789 5787 5786 5784 5782 5780 5777 5775 5772 5769 5766 5763 5760 5756 5753 5749 5745 5741 5736 5732 5727 5722 5718 5714 5709 5704 5700 5696 5691 5686 5682 5677 5673 5669 5666 5662 5659
5782 5780 5778 5776 5774 5771 5769 5766 5763 5760 5757 5754 5750 5746 5742 5738 5734 5730 5725 5720 5715 5711 5706 5701 5697 5692 5687 5682 5677 5673 5669 5665 5661 5657 5653 5650 5646 5643
5773 5771 5768 5766 5763 5760 5758 5755 5752 5748 5745 5741 5737 5733 5728 5724 5719 5715 5710 5704 5699 5695 5690 5685 5680 5675 5671 5666 5662 5658 5653 5649 5645 5641 5638 5634 5631 5627
5764 5761 5758 5756 5753 5750 5746 5743 5740 5736 5732 5728 5723 5719 5714 5709 5705 5700 5695 5689 5684 5680 5675 5670 5665 5661 5657 5652 5648 5643 5639 5635 5631 5627 5623 5619 5616 5613
5755 5752 5749 5745 5742 5739 5735 5731 5728 5723 5719 5714 5710 5705 5700 5695 5690 5685 5680 5675 5670 5666 5661 5656 5652 5647 5644 5639 5634 5629 5625 5621 5617 5613 5609 5606 5603 5600
5745 5742 5738 5735 5731 5728 5724 5719 5715 5711 5706 5701 5696 5692 5686 5681 5676 5671 5666 5661 5656 5652 5647 5643 5639 5635 5630 5626 5622 5617 5612 5608 5604 5601 5598 5594 5591 5589
5734 5731 5728 5724 5720 5716 5712 5708 5703 5698 5693 5688 5683 5678 5673 5668 5663 5658 5653 5648 5644 5639 5635 5631 5627 5622 5618 5614 5610 5606 5601 5597 5593 5590 5587 5585 5582 5580
5724 5721 5717 5713 5709 5705 5700 5695 5691 5686 5681 5675 5670 5665 5660 5655 5651 5646 5641 5637 5633 5628 5624 5620 5616 5612 5608 5604 5600 5596 5592 5588 5585 5581 5578 5575 5572 5571
5714 5710 5706 5702 5697 5692 5688 5683 5678 5673 5668 5663 5658 5653 5648 5644 5639 5635 5630 5626 5622 5619 5615 5611 5607 5603 5599 5595 5591 5588 5584 5580 5577 5574 5571 5567 5565 5563